Year,Month,Day,Hour,Minute,Value (Times are PST for temperature in C)
2006,07,09,00,00,16.40
2006,07,09,00,01,16.30
2006,07,09,00,02,16.30
2006,07,09,00,03,16.30
2006,07,09,00,04,16.30
2006,07,09,00,05,16.30
2006,07,09,00,06,16.30
2006,07,09,00,07,16.30
2006,07,09,00,08,16.30
2006,07,09,00,09,16.30
2006,07,09,00,10,16.30
2006,07,09,00,11,16.30
2006,07,09,00,12,16.30
2006,07,09,00,13,16.30
2006,07,09,00,14,16.30
2006,07,09,00,15,16.30
2006,07,09,00,16,16.30
2006,07,09,00,17,16.30
2006,07,09,00,18,16.30
2006,07,09,00,19,16.30
2006,07,09,00,20,16.20
2006,07,09,00,21,16.20
2006,07,09,00,22,16.20
2006,07,09,00,23,16.20
2006,07,09,00,24,16.20
2006,07,09,00,25,16.20
2006,07,09,00,26,16.20
2006,07,09,00,27,16.20
2006,07,09,00,28,16.20
2006,07,09,00,29,16.20
2006,07,09,00,30,16.20
2006,07,09,00,31,16.20
2006,07,09,00,32,16.20
2006,07,09,00,33,16.20
2006,07,09,00,34,16.20
2006,07,09,00,35,16.20
2006,07,09,00,36,16.20
2006,07,09,00,37,16.20
2006,07,09,00,38,16.20
2006,07,09,00,39,16.20
2006,07,09,00,40,16.20
2006,07,09,00,41,16.20
2006,07,09,00,42,16.10
2006,07,09,00,43,16.10
2006,07,09,00,44,16.10
2006,07,09,00,45,16.10
2006,07,09,00,46,16.10
2006,07,09,00,47,16.10
2006,07,09,00,48,16.10
2006,07,09,00,49,16.10
2006,07,09,00,50,16.10
2006,07,09,00,51,16.10
2006,07,09,00,52,16.10
2006,07,09,00,53,16.10
2006,07,09,00,54,16.10
2006,07,09,00,55,16.00
2006,07,09,00,56,15.90
2006,07,09,00,57,15.90
2006,07,09,00,58,15.90
2006,07,09,00,59,15.90
2006,07,09,01,00,15.90
2006,07,09,01,01,15.90
2006,07,09,01,02,15.90
2006,07,09,01,03,15.90
2006,07,09,01,04,15.90
2006,07,09,01,05,15.80
2006,07,09,01,06,15.80
2006,07,09,01,07,15.80
2006,07,09,01,08,15.80
2006,07,09,01,09,15.80
2006,07,09,01,10,15.80
2006,07,09,01,11,15.80
2006,07,09,01,12,15.80
2006,07,09,01,13,15.80
2006,07,09,01,14,15.80
2006,07,09,01,15,15.80
2006,07,09,01,16,15.80
2006,07,09,01,17,15.80
2006,07,09,01,18,15.80
2006,07,09,01,19,15.80
2006,07,09,01,20,15.80
2006,07,09,01,21,15.80
2006,07,09,01,22,15.80
2006,07,09,01,23,15.80
2006,07,09,01,24,15.80
2006,07,09,01,25,15.80
2006,07,09,01,26,15.80
2006,07,09,01,27,15.80
2006,07,09,01,28,15.80
2006,07,09,01,29,15.80
2006,07,09,01,30,15.80
2006,07,09,01,31,15.80
2006,07,09,01,32,15.80
2006,07,09,01,33,15.80
2006,07,09,01,34,15.80
2006,07,09,01,35,15.80
2006,07,09,01,36,15.80
2006,07,09,01,37,15.80
2006,07,09,01,38,15.80
2006,07,09,01,39,15.80
2006,07,09,01,40,15.80
2006,07,09,01,41,15.80
2006,07,09,01,42,15.80
2006,07,09,01,43,15.80
2006,07,09,01,44,15.80
2006,07,09,01,45,15.80
2006,07,09,01,46,15.80
2006,07,09,01,47,15.80
2006,07,09,01,48,15.80
2006,07,09,01,49,15.80
2006,07,09,01,50,15.80
2006,07,09,01,51,15.80
2006,07,09,01,52,15.80
2006,07,09,01,53,15.80
2006,07,09,01,54,15.80
2006,07,09,01,55,15.80
2006,07,09,01,56,15.80
2006,07,09,01,57,15.80
2006,07,09,01,58,15.80
2006,07,09,01,59,15.80
2006,07,09,02,00,15.80
2006,07,09,02,01,15.80
2006,07,09,02,02,15.80
2006,07,09,02,03,15.80
2006,07,09,02,04,15.80
2006,07,09,02,05,15.80
2006,07,09,02,06,15.80
2006,07,09,02,07,15.80
2006,07,09,02,08,15.80
2006,07,09,02,09,15.80
2006,07,09,02,10,15.80
2006,07,09,02,11,15.80
2006,07,09,02,12,15.80
2006,07,09,02,13,15.80
2006,07,09,02,14,15.80
2006,07,09,02,15,15.90
2006,07,09,02,16,15.90
2006,07,09,02,17,15.90
2006,07,09,02,18,15.90
2006,07,09,02,19,15.90
2006,07,09,02,20,15.90
2006,07,09,02,21,16.00
2006,07,09,02,22,16.10
2006,07,09,02,23,16.10
2006,07,09,02,24,16.10
2006,07,09,02,25,16.10
2006,07,09,02,26,16.10
2006,07,09,02,27,16.10
2006,07,09,02,28,16.10
2006,07,09,02,29,16.10
2006,07,09,02,30,16.10
2006,07,09,02,31,16.10
2006,07,09,02,32,16.10
2006,07,09,02,33,16.10
2006,07,09,02,34,16.10
2006,07,09,02,35,16.10
2006,07,09,02,36,16.10
2006,07,09,02,37,16.10
2006,07,09,02,38,16.10
2006,07,09,02,39,16.10
2006,07,09,02,40,16.10
2006,07,09,02,41,16.10
2006,07,09,02,42,16.10
2006,07,09,02,43,16.10
2006,07,09,02,44,16.10
2006,07,09,02,45,16.10
2006,07,09,02,46,16.10
2006,07,09,02,47,16.10
2006,07,09,02,48,16.10
2006,07,09,02,49,16.10
2006,07,09,02,50,16.10
2006,07,09,02,51,16.10
2006,07,09,02,52,16.20
2006,07,09,02,53,16.20
2006,07,09,02,54,16.20
2006,07,09,02,55,16.20
2006,07,09,02,56,16.20
2006,07,09,02,57,16.20
2006,07,09,02,58,16.20
2006,07,09,02,59,16.30
2006,07,09,03,00,16.30
2006,07,09,03,01,16.30
2006,07,09,03,02,16.30
2006,07,09,03,03,16.40
2006,07,09,03,04,16.40
2006,07,09,03,05,16.40
2006,07,09,03,06,16.40
2006,07,09,03,07,16.40
2006,07,09,03,08,16.40
2006,07,09,03,09,16.40
2006,07,09,03,10,16.40
2006,07,09,03,11,16.40
2006,07,09,03,12,16.40
2006,07,09,03,13,16.40
2006,07,09,03,14,16.40
2006,07,09,03,15,16.40
2006,07,09,03,16,16.40
2006,07,09,03,17,16.40
2006,07,09,03,18,16.40
2006,07,09,03,19,16.40
2006,07,09,03,20,16.50
2006,07,09,03,21,16.60
2006,07,09,03,22,16.60
2006,07,09,03,23,16.60
2006,07,09,03,24,16.60
2006,07,09,03,25,16.60
2006,07,09,03,26,16.60
2006,07,09,03,27,16.50
2006,07,09,03,28,16.40
2006,07,09,03,29,16.40
2006,07,09,03,30,16.40
2006,07,09,03,31,16.40
2006,07,09,03,32,16.40
2006,07,09,03,33,16.40
2006,07,09,03,34,16.40
2006,07,09,03,35,16.40
2006,07,09,03,36,16.40
2006,07,09,03,37,16.40
2006,07,09,03,38,16.30
2006,07,09,03,39,16.30
2006,07,09,03,40,16.30
2006,07,09,03,41,16.30
2006,07,09,03,42,16.20
2006,07,09,03,43,16.20
2006,07,09,03,44,16.20
2006,07,09,03,45,16.20
2006,07,09,03,46,16.10
2006,07,09,03,47,16.10
2006,07,09,03,48,16.10
2006,07,09,03,49,16.10
2006,07,09,03,50,16.10
2006,07,09,03,51,16.00
2006,07,09,03,52,15.90
2006,07,09,03,53,15.90
2006,07,09,03,54,15.90
2006,07,09,03,55,15.80
2006,07,09,03,56,15.80
2006,07,09,03,57,15.80
2006,07,09,03,58,15.80
2006,07,09,03,59,15.80
2006,07,09,04,00,15.80
2006,07,09,04,01,15.80
2006,07,09,04,02,15.80
2006,07,09,04,03,15.80
2006,07,09,04,04,15.70
2006,07,09,04,05,15.70
2006,07,09,04,06,15.70
2006,07,09,04,07,15.70
2006,07,09,04,08,15.60
2006,07,09,04,09,15.60
2006,07,09,04,10,15.60
2006,07,09,04,11,15.60
2006,07,09,04,12,15.60
2006,07,09,04,13,15.50
2006,07,09,04,14,15.50
2006,07,09,04,15,15.50
2006,07,09,04,16,15.50
2006,07,09,04,17,15.50
2006,07,09,04,18,15.50
2006,07,09,04,19,15.40
2006,07,09,04,20,15.40
2006,07,09,04,21,15.40
2006,07,09,04,22,15.40
2006,07,09,04,23,15.40
2006,07,09,04,24,15.40
2006,07,09,04,25,15.40
2006,07,09,04,26,15.40
2006,07,09,04,27,15.40
2006,07,09,04,28,15.40
2006,07,09,04,29,15.40
2006,07,09,04,30,15.40
2006,07,09,04,31,15.40
2006,07,09,04,32,15.40
2006,07,09,04,33,15.40
2006,07,09,04,34,15.40
2006,07,09,04,35,15.40
2006,07,09,04,36,15.40
2006,07,09,04,37,15.40
2006,07,09,04,38,15.40
2006,07,09,04,39,15.40
2006,07,09,04,40,15.40
2006,07,09,04,41,15.40
2006,07,09,04,42,15.40
2006,07,09,04,43,15.40
2006,07,09,04,44,15.40
2006,07,09,04,45,15.40
2006,07,09,04,46,15.40
2006,07,09,04,47,15.40
2006,07,09,04,48,15.40
2006,07,09,04,49,15.40
2006,07,09,04,50,15.40
2006,07,09,04,51,15.40
2006,07,09,04,52,15.40
2006,07,09,04,53,15.40
2006,07,09,04,54,15.40
2006,07,09,04,55,15.40
2006,07,09,04,56,15.40
2006,07,09,04,57,15.40
2006,07,09,04,58,15.40
2006,07,09,04,59,15.40
2006,07,09,05,00,15.40
2006,07,09,05,01,15.40
2006,07,09,05,02,15.40
2006,07,09,05,03,15.50
2006,07,09,05,04,15.50
2006,07,09,05,05,15.50
2006,07,09,05,06,15.50
2006,07,09,05,07,15.50
2006,07,09,05,08,15.50
2006,07,09,05,09,15.50
2006,07,09,05,10,15.50
2006,07,09,05,11,15.50
2006,07,09,05,12,15.50
2006,07,09,05,13,15.50
2006,07,09,05,14,15.50
2006,07,09,05,15,15.50
2006,07,09,05,16,15.50
2006,07,09,05,17,15.60
2006,07,09,05,18,15.60
2006,07,09,05,19,15.60
2006,07,09,05,20,15.60
2006,07,09,05,21,15.60
2006,07,09,05,22,15.60
2006,07,09,05,23,15.60
2006,07,09,05,24,15.60
2006,07,09,05,25,15.60
2006,07,09,05,26,15.60
2006,07,09,05,27,15.60
2006,07,09,05,28,15.60
2006,07,09,05,29,15.60
2006,07,09,05,30,15.60
2006,07,09,05,31,15.70
2006,07,09,05,32,15.70
2006,07,09,05,33,15.70
2006,07,09,05,34,15.70
2006,07,09,05,35,15.70
2006,07,09,05,36,15.70
2006,07,09,05,37,15.70
2006,07,09,05,38,15.70
2006,07,09,05,39,15.70
2006,07,09,05,40,15.70
2006,07,09,05,41,15.70
2006,07,09,05,42,15.70
2006,07,09,05,43,15.70
2006,07,09,05,44,15.70
2006,07,09,05,45,15.80
2006,07,09,05,46,15.80
2006,07,09,05,47,15.80
2006,07,09,05,48,15.80
2006,07,09,05,49,15.80
2006,07,09,05,50,15.80
2006,07,09,05,51,15.80
2006,07,09,05,52,15.80
2006,07,09,05,53,15.80
2006,07,09,05,54,15.80
2006,07,09,05,55,15.80
2006,07,09,05,56,15.80
2006,07,09,05,57,15.80
2006,07,09,05,58,15.80
2006,07,09,05,59,15.80
2006,07,09,06,00,15.80
2006,07,09,06,01,15.80
2006,07,09,06,02,15.80
2006,07,09,06,03,15.80
2006,07,09,06,04,15.80
2006,07,09,06,05,15.90
2006,07,09,06,06,15.90
2006,07,09,06,07,15.90
2006,07,09,06,08,16.00
2006,07,09,06,09,16.10
2006,07,09,06,10,16.10
2006,07,09,06,11,16.10
2006,07,09,06,12,16.10
2006,07,09,06,13,16.10
2006,07,09,06,14,16.10
2006,07,09,06,15,16.10
2006,07,09,06,16,16.10
2006,07,09,06,17,16.10
2006,07,09,06,18,16.10
2006,07,09,06,19,16.20
2006,07,09,06,20,16.20
2006,07,09,06,21,16.20
2006,07,09,06,22,16.20
2006,07,09,06,23,16.20
2006,07,09,06,24,16.20
2006,07,09,06,25,16.20
2006,07,09,06,26,16.20
2006,07,09,06,27,16.20
2006,07,09,06,28,16.20
2006,07,09,06,29,16.30
2006,07,09,06,30,16.30
2006,07,09,06,31,16.30
2006,07,09,06,32,16.30
2006,07,09,06,33,16.30
2006,07,09,06,34,16.30
2006,07,09,06,35,16.30
2006,07,09,06,36,16.30
2006,07,09,06,37,16.40
2006,07,09,06,38,16.40
2006,07,09,06,39,16.40
2006,07,09,06,40,16.40
2006,07,09,06,41,16.40
2006,07,09,06,42,16.40
2006,07,09,06,43,16.40
2006,07,09,06,44,16.40
2006,07,09,06,45,16.40
2006,07,09,06,46,16.40
2006,07,09,06,47,16.40
2006,07,09,06,48,16.40
2006,07,09,06,49,16.40
2006,07,09,06,50,16.50
2006,07,09,06,51,16.60
2006,07,09,06,52,16.60
2006,07,09,06,53,16.60
2006,07,09,06,54,16.60
2006,07,09,06,55,16.60
2006,07,09,06,56,16.60
2006,07,09,06,57,16.60
2006,07,09,06,58,16.70
2006,07,09,06,59,16.70
2006,07,09,07,00,16.70
2006,07,09,07,01,16.70
2006,07,09,07,02,16.70
2006,07,09,07,03,16.70
2006,07,09,07,04,16.70
2006,07,09,07,05,16.70
2006,07,09,07,06,16.70
2006,07,09,07,07,16.70
2006,07,09,07,08,16.70
2006,07,09,07,09,16.70
2006,07,09,07,10,16.80
2006,07,09,07,11,16.80
2006,07,09,07,12,16.80
2006,07,09,07,13,16.80
2006,07,09,07,14,16.80
2006,07,09,07,15,16.90
2006,07,09,07,16,16.90
2006,07,09,07,17,16.90
2006,07,09,07,18,17.00
2006,07,09,07,19,17.00
2006,07,09,07,20,17.00
2006,07,09,07,21,17.00
2006,07,09,07,22,17.10
2006,07,09,07,23,17.10
2006,07,09,07,24,17.20
2006,07,09,07,25,17.20
2006,07,09,07,26,17.20
2006,07,09,07,27,17.30
2006,07,09,07,28,17.30
2006,07,09,07,29,17.30
2006,07,09,07,30,17.30
2006,07,09,07,31,17.30
2006,07,09,07,32,17.30
2006,07,09,07,33,17.30
2006,07,09,07,34,17.30
2006,07,09,07,35,17.30
2006,07,09,07,36,17.30
2006,07,09,07,37,17.30
2006,07,09,07,38,17.30
2006,07,09,07,39,17.30
2006,07,09,07,40,17.30
2006,07,09,07,41,17.30
2006,07,09,07,42,17.30
2006,07,09,07,43,17.30
2006,07,09,07,44,17.30
2006,07,09,07,45,17.30
2006,07,09,07,46,17.30
2006,07,09,07,47,17.30
2006,07,09,07,48,17.30
2006,07,09,07,49,17.30
2006,07,09,07,50,17.30
2006,07,09,07,51,17.20
2006,07,09,07,52,17.20
2006,07,09,07,53,17.20
2006,07,09,07,54,17.20
2006,07,09,07,55,17.20
2006,07,09,07,56,17.20
2006,07,09,07,57,17.10
2006,07,09,07,58,17.10
2006,07,09,07,59,17.10
2006,07,09,08,00,17.20
2006,07,09,08,01,17.10
2006,07,09,08,02,17.10
2006,07,09,08,03,17.10
2006,07,09,08,04,17.10
2006,07,09,08,05,17.10
2006,07,09,08,06,17.00
2006,07,09,08,07,17.00
2006,07,09,08,08,17.00
2006,07,09,08,09,17.00
2006,07,09,08,10,16.90
2006,07,09,08,11,16.90
2006,07,09,08,12,16.90
2006,07,09,08,13,16.90
2006,07,09,08,14,16.80
2006,07,09,08,15,16.80
2006,07,09,08,16,16.80
2006,07,09,08,17,16.80
2006,07,09,08,18,16.80
2006,07,09,08,19,16.80
2006,07,09,08,20,16.80
2006,07,09,08,21,16.80
2006,07,09,08,22,16.80
2006,07,09,08,23,16.80
2006,07,09,08,24,16.80
2006,07,09,08,25,16.80
2006,07,09,08,26,16.80
2006,07,09,08,27,16.80
2006,07,09,08,28,16.80
2006,07,09,08,29,16.90
2006,07,09,08,30,16.90
2006,07,09,08,31,16.90
2006,07,09,08,32,16.90
2006,07,09,08,33,17.00
2006,07,09,08,34,17.00
2006,07,09,08,35,17.00
2006,07,09,08,36,17.00
2006,07,09,08,37,17.00
2006,07,09,08,38,17.10
2006,07,09,08,39,17.10
2006,07,09,08,40,17.10
2006,07,09,08,41,17.20
2006,07,09,08,42,17.20
2006,07,09,08,43,17.30
2006,07,09,08,44,17.30
2006,07,09,08,45,17.30
2006,07,09,08,46,17.30
2006,07,09,08,47,17.30
2006,07,09,08,48,17.30
2006,07,09,08,49,17.40
2006,07,09,08,50,17.40
2006,07,09,08,51,17.40
2006,07,09,08,52,17.50
2006,07,09,08,53,17.50
2006,07,09,08,54,17.50
2006,07,09,08,55,17.60
2006,07,09,08,56,17.60
2006,07,09,08,57,17.70
2006,07,09,08,58,17.70
2006,07,09,08,59,17.70
2006,07,09,09,00,17.80
2006,07,09,09,01,17.80
2006,07,09,09,02,17.80
2006,07,09,09,03,17.90
2006,07,09,09,04,17.90
2006,07,09,09,05,17.90
2006,07,09,09,06,17.90
2006,07,09,09,07,17.90
2006,07,09,09,08,18.00
2006,07,09,09,09,18.10
2006,07,09,09,10,18.10
2006,07,09,09,11,18.20
2006,07,09,09,12,18.20
2006,07,09,09,13,18.20
2006,07,09,09,14,18.30
2006,07,09,09,15,18.30
2006,07,09,09,16,18.30
2006,07,09,09,17,18.40
2006,07,09,09,18,18.40
2006,07,09,09,19,18.40
2006,07,09,09,20,18.30
2006,07,09,09,21,18.30
2006,07,09,09,22,18.30
2006,07,09,09,23,18.30
2006,07,09,09,24,18.30
2006,07,09,09,25,18.30
2006,07,09,09,26,18.30
2006,07,09,09,27,18.30
2006,07,09,09,28,18.40
2006,07,09,09,29,18.40
2006,07,09,09,30,18.40
2006,07,09,09,31,18.40
2006,07,09,09,32,18.40
2006,07,09,09,33,18.50
2006,07,09,09,34,18.50
2006,07,09,09,35,18.50
2006,07,09,09,36,18.50
2006,07,09,09,37,18.50
2006,07,09,09,38,18.50
2006,07,09,09,39,18.60
2006,07,09,09,40,18.60
2006,07,09,09,41,18.70
2006,07,09,09,42,18.70
2006,07,09,09,43,18.70
2006,07,09,09,44,18.70
2006,07,09,09,45,18.70
2006,07,09,09,46,18.70
2006,07,09,09,47,18.80
2006,07,09,09,48,18.80
2006,07,09,09,49,18.80
2006,07,09,09,50,18.90
2006,07,09,09,51,18.90
2006,07,09,09,52,18.90
2006,07,09,09,53,18.90
2006,07,09,09,54,18.90
2006,07,09,09,55,18.90
2006,07,09,09,56,18.90
2006,07,09,09,57,18.90
2006,07,09,09,58,18.90
2006,07,09,09,59,18.90
2006,07,09,10,00,18.90
2006,07,09,10,01,18.90
2006,07,09,10,02,18.90
2006,07,09,10,03,18.90
2006,07,09,10,04,18.90
2006,07,09,10,05,18.90
2006,07,09,10,06,18.90
2006,07,09,10,07,18.90
2006,07,09,10,08,18.90
2006,07,09,10,09,18.90
2006,07,09,10,10,19.00
2006,07,09,10,11,19.10
2006,07,09,10,12,19.10
2006,07,09,10,13,19.10
2006,07,09,10,14,19.10
2006,07,09,10,15,19.10
2006,07,09,10,16,19.10
2006,07,09,10,17,19.10
2006,07,09,10,18,19.10
2006,07,09,10,19,19.10
2006,07,09,10,20,19.10
2006,07,09,10,21,19.10
2006,07,09,10,22,19.10
2006,07,09,10,23,19.10
2006,07,09,10,24,19.10
2006,07,09,10,25,19.10
2006,07,09,10,26,19.10
2006,07,09,10,27,19.10
2006,07,09,10,28,19.10
2006,07,09,10,29,19.10
2006,07,09,10,30,19.10
2006,07,09,10,31,19.10
2006,07,09,10,32,19.10
2006,07,09,10,33,19.10
2006,07,09,10,34,19.10
2006,07,09,10,35,19.10
2006,07,09,10,36,19.00
2006,07,09,10,37,18.90
2006,07,09,10,38,19.00
2006,07,09,10,39,19.10
2006,07,09,10,40,19.10
2006,07,09,10,41,19.10
2006,07,09,10,42,19.10
2006,07,09,10,43,19.10
2006,07,09,10,44,19.10
2006,07,09,10,45,19.10
2006,07,09,10,46,19.10
2006,07,09,10,47,19.10
2006,07,09,10,48,19.00
2006,07,09,10,49,18.90
2006,07,09,10,50,18.90
2006,07,09,10,51,18.90
2006,07,09,10,52,18.80
2006,07,09,10,53,18.80
2006,07,09,10,54,18.70
2006,07,09,10,55,18.70
2006,07,09,10,56,18.60
2006,07,09,10,57,18.60
2006,07,09,10,58,18.60
2006,07,09,10,59,18.60
2006,07,09,11,00,18.60
2006,07,09,11,01,18.50
2006,07,09,11,02,18.50
2006,07,09,11,03,18.50
2006,07,09,11,04,18.50
2006,07,09,11,05,18.50
2006,07,09,11,06,18.50
2006,07,09,11,07,18.60
2006,07,09,11,08,18.60
2006,07,09,11,09,18.60
2006,07,09,11,10,18.60
2006,07,09,11,11,18.70
2006,07,09,11,12,18.70
2006,07,09,11,13,18.70
2006,07,09,11,14,18.80
2006,07,09,11,15,18.80
2006,07,09,11,16,18.80
2006,07,09,11,17,18.90
2006,07,09,11,18,18.90
2006,07,09,11,19,18.90
2006,07,09,11,20,18.90
2006,07,09,11,21,19.00
2006,07,09,11,22,19.10
2006,07,09,11,23,19.10
2006,07,09,11,24,19.10
2006,07,09,11,25,19.10
2006,07,09,11,26,19.10
2006,07,09,11,27,19.10
2006,07,09,11,28,19.10
2006,07,09,11,29,19.10
2006,07,09,11,30,19.10
2006,07,09,11,31,19.10
2006,07,09,11,32,19.10
2006,07,09,11,33,19.10
2006,07,09,11,34,19.10
2006,07,09,11,35,18.90
2006,07,09,11,36,18.90
2006,07,09,11,37,18.90
2006,07,09,11,38,18.90
2006,07,09,11,39,18.90
2006,07,09,11,40,18.80
2006,07,09,11,41,18.80
2006,07,09,11,42,18.70
2006,07,09,11,43,18.70
2006,07,09,11,44,18.70
2006,07,09,11,45,18.60
2006,07,09,11,46,18.60
2006,07,09,11,47,18.60
2006,07,09,11,48,18.60
2006,07,09,11,49,18.50
2006,07,09,11,50,18.60
2006,07,09,11,51,18.60
2006,07,09,11,52,18.60
2006,07,09,11,53,18.60
2006,07,09,11,54,18.60
2006,07,09,11,55,18.60
2006,07,09,11,56,18.60
2006,07,09,11,57,18.60
2006,07,09,11,58,18.60
2006,07,09,11,59,18.60
2006,07,09,12,00,18.70
2006,07,09,12,01,18.70
2006,07,09,12,02,18.80
2006,07,09,12,03,18.90
2006,07,09,12,04,18.90
2006,07,09,12,05,18.90
2006,07,09,12,06,19.10
2006,07,09,12,07,19.10
2006,07,09,12,08,19.10
2006,07,09,12,09,19.20
2006,07,09,12,10,19.30
2006,07,09,12,11,19.30
2006,07,09,12,12,19.40
2006,07,09,12,13,19.40
2006,07,09,12,14,19.50
2006,07,09,12,15,19.60
2006,07,09,12,16,19.60
2006,07,09,12,17,19.70
2006,07,09,12,18,19.70
2006,07,09,12,19,19.80
2006,07,09,12,20,19.80
2006,07,09,12,21,19.90
2006,07,09,12,22,19.90
2006,07,09,12,23,20.00
2006,07,09,12,24,20.10
2006,07,09,12,25,20.20
2006,07,09,12,26,20.20
2006,07,09,12,27,20.30
2006,07,09,12,28,20.30
2006,07,09,12,29,20.30
2006,07,09,12,30,20.40
2006,07,09,12,31,20.40
2006,07,09,12,32,20.50
2006,07,09,12,33,20.60
2006,07,09,12,34,20.70
2006,07,09,12,35,20.80
2006,07,09,12,36,20.80
2006,07,09,12,37,20.90
2006,07,09,12,38,20.90
2006,07,09,12,39,20.90
2006,07,09,12,40,21.00
2006,07,09,12,41,21.00
2006,07,09,12,42,21.00
2006,07,09,12,43,21.10
2006,07,09,12,44,21.10
2006,07,09,12,45,21.20
2006,07,09,12,46,21.20
2006,07,09,12,47,21.20
2006,07,09,12,48,21.20
2006,07,09,12,49,21.30
2006,07,09,12,50,21.30
2006,07,09,12,51,21.50
2006,07,09,12,52,21.60
2006,07,09,12,53,21.60
2006,07,09,12,54,21.70
2006,07,09,12,55,21.80
2006,07,09,12,56,21.80
2006,07,09,12,57,21.70
2006,07,09,12,58,21.70
2006,07,09,12,59,21.70
2006,07,09,13,00,21.70
2006,07,09,13,01,21.70
2006,07,09,13,02,21.80
2006,07,09,13,03,21.80
2006,07,09,13,04,21.80
2006,07,09,13,05,21.70
2006,07,09,13,06,21.70
2006,07,09,13,07,21.70
2006,07,09,13,08,21.60
2006,07,09,13,09,21.70
2006,07,09,13,10,21.70
2006,07,09,13,11,21.80
2006,07,09,13,12,21.80
2006,07,09,13,13,21.90
2006,07,09,13,14,22.00
2006,07,09,13,15,22.10
2006,07,09,13,16,22.10
2006,07,09,13,17,22.20
2006,07,09,13,18,22.30
2006,07,09,13,19,22.30
2006,07,09,13,20,22.30
2006,07,09,13,21,22.30
2006,07,09,13,22,22.30
2006,07,09,13,23,22.30
2006,07,09,13,24,22.30
2006,07,09,13,25,22.20
2006,07,09,13,26,22.00
2006,07,09,13,27,21.90
2006,07,09,13,28,21.90
2006,07,09,13,29,21.80
2006,07,09,13,30,21.90
2006,07,09,13,31,21.90
2006,07,09,13,32,21.90
2006,07,09,13,33,21.90
2006,07,09,13,34,21.90
2006,07,09,13,35,21.80
2006,07,09,13,36,21.90
2006,07,09,13,37,21.90
2006,07,09,13,38,22.00
2006,07,09,13,39,22.00
2006,07,09,13,40,22.10
2006,07,09,13,41,22.20
2006,07,09,13,42,22.30
2006,07,09,13,43,22.40
2006,07,09,13,44,22.50
2006,07,09,13,45,22.60
2006,07,09,13,46,22.70
2006,07,09,13,47,22.70
2006,07,09,13,48,22.80
2006,07,09,13,49,22.90
2006,07,09,13,50,22.90
2006,07,09,13,51,22.90
2006,07,09,13,52,22.90
2006,07,09,13,53,23.10
2006,07,09,13,54,23.00
2006,07,09,13,55,22.90
2006,07,09,13,56,22.70
2006,07,09,13,57,22.60
2006,07,09,13,58,22.50
2006,07,09,13,59,22.30
2006,07,09,14,00,22.30
2006,07,09,14,01,22.20
2006,07,09,14,02,22.30
2006,07,09,14,03,22.40
2006,07,09,14,04,22.40
2006,07,09,14,05,22.60
2006,07,09,14,06,22.70
2006,07,09,14,07,22.90
2006,07,09,14,08,23.10
2006,07,09,14,09,23.20
2006,07,09,14,10,23.30
2006,07,09,14,11,23.30
2006,07,09,14,12,23.30
2006,07,09,14,13,23.30
2006,07,09,14,14,23.30
2006,07,09,14,15,23.30
2006,07,09,14,16,23.20
2006,07,09,14,17,23.10
2006,07,09,14,18,23.00
2006,07,09,14,19,22.90
2006,07,09,14,20,22.90
2006,07,09,14,21,22.90
2006,07,09,14,22,22.70
2006,07,09,14,23,22.60
2006,07,09,14,24,22.50
2006,07,09,14,25,22.60
2006,07,09,14,26,22.70
2006,07,09,14,27,22.80
2006,07,09,14,28,22.80
2006,07,09,14,29,22.90
2006,07,09,14,30,22.90
2006,07,09,14,31,22.90
2006,07,09,14,32,22.90
2006,07,09,14,33,22.90
2006,07,09,14,34,22.90
2006,07,09,14,35,22.90
2006,07,09,14,36,22.90
2006,07,09,14,37,22.90
2006,07,09,14,38,23.10
2006,07,09,14,39,23.10
2006,07,09,14,40,23.20
2006,07,09,14,41,23.20
2006,07,09,14,42,23.20
2006,07,09,14,43,23.20
2006,07,09,14,44,23.10
2006,07,09,14,45,23.00
2006,07,09,14,46,22.90
2006,07,09,14,47,22.80
2006,07,09,14,48,22.80
2006,07,09,14,49,22.80
2006,07,09,14,50,22.80
2006,07,09,14,51,22.90
2006,07,09,14,52,22.90
2006,07,09,14,53,22.90
2006,07,09,14,54,22.90
2006,07,09,14,55,22.90
2006,07,09,14,56,22.80
2006,07,09,14,57,22.80
2006,07,09,14,58,22.90
2006,07,09,14,59,23.00
2006,07,09,15,00,23.20
2006,07,09,15,01,23.30
2006,07,09,15,02,23.30
2006,07,09,15,03,23.40
2006,07,09,15,04,23.40
2006,07,09,15,05,23.60
2006,07,09,15,06,23.60
2006,07,09,15,07,23.40
2006,07,09,15,08,23.40
2006,07,09,15,09,23.30
2006,07,09,15,10,23.30
2006,07,09,15,11,23.30
2006,07,09,15,12,23.30
2006,07,09,15,13,23.30
2006,07,09,15,14,23.30
2006,07,09,15,15,23.30
2006,07,09,15,16,23.30
2006,07,09,15,17,23.30
2006,07,09,15,18,23.30
2006,07,09,15,19,23.30
2006,07,09,15,20,23.40
2006,07,09,15,21,23.40
2006,07,09,15,22,23.60
2006,07,09,15,23,23.60
2006,07,09,15,24,23.70
2006,07,09,15,25,23.70
2006,07,09,15,26,23.70
2006,07,09,15,27,23.70
2006,07,09,15,28,23.70
2006,07,09,15,29,23.80
2006,07,09,15,30,23.70
2006,07,09,15,31,23.50
2006,07,09,15,32,23.30
2006,07,09,15,33,23.10
2006,07,09,15,34,23.10
2006,07,09,15,35,23.10
2006,07,09,15,36,23.10
2006,07,09,15,37,23.10
2006,07,09,15,38,23.10
2006,07,09,15,39,23.10
2006,07,09,15,40,23.20
2006,07,09,15,41,23.30
2006,07,09,15,42,23.30
2006,07,09,15,43,23.30
2006,07,09,15,44,23.30
2006,07,09,15,45,23.30
2006,07,09,15,46,23.30
2006,07,09,15,47,23.30
2006,07,09,15,48,23.30
2006,07,09,15,49,23.30
2006,07,09,15,50,23.30
2006,07,09,15,51,23.30
2006,07,09,15,52,23.30
2006,07,09,15,53,23.30
2006,07,09,15,54,23.30
2006,07,09,15,55,23.30
2006,07,09,15,56,23.30
2006,07,09,15,57,23.30
2006,07,09,15,58,23.30
2006,07,09,15,59,23.20
2006,07,09,16,00,23.20
2006,07,09,16,01,23.10
2006,07,09,16,02,23.10
2006,07,09,16,03,23.00
2006,07,09,16,04,22.90
2006,07,09,16,05,22.80
2006,07,09,16,06,22.70
2006,07,09,16,07,22.70
2006,07,09,16,08,22.70
2006,07,09,16,09,22.70
2006,07,09,16,10,22.70
2006,07,09,16,11,22.90
2006,07,09,16,12,22.90
2006,07,09,16,13,23.00
2006,07,09,16,14,23.10
2006,07,09,16,15,23.20
2006,07,09,16,16,23.20
2006,07,09,16,17,23.00
2006,07,09,16,18,22.80
2006,07,09,16,19,22.60
2006,07,09,16,20,22.50
2006,07,09,16,21,22.40
2006,07,09,16,22,22.30
2006,07,09,16,23,22.30
2006,07,09,16,24,22.30
2006,07,09,16,25,22.30
2006,07,09,16,26,22.40
2006,07,09,16,27,22.40
2006,07,09,16,28,22.30
2006,07,09,16,29,22.30
2006,07,09,16,30,22.30
2006,07,09,16,31,22.30
2006,07,09,16,32,22.30
2006,07,09,16,33,22.30
2006,07,09,16,34,22.40
2006,07,09,16,35,22.40
2006,07,09,16,36,22.50
2006,07,09,16,37,22.50
2006,07,09,16,38,22.50
2006,07,09,16,39,22.60
2006,07,09,16,40,22.60
2006,07,09,16,41,22.60
2006,07,09,16,42,22.70
2006,07,09,16,43,22.70
2006,07,09,16,44,22.60
2006,07,09,16,45,22.60
2006,07,09,16,46,22.50
2006,07,09,16,47,22.50
2006,07,09,16,48,22.50
2006,07,09,16,49,22.50
2006,07,09,16,50,22.40
2006,07,09,16,51,22.40
2006,07,09,16,52,22.40
2006,07,09,16,53,22.40
2006,07,09,16,54,22.50
2006,07,09,16,55,22.50
2006,07,09,16,56,22.60
2006,07,09,16,57,22.60
2006,07,09,16,58,22.60
2006,07,09,16,59,22.60
2006,07,09,17,00,22.60
2006,07,09,17,01,22.60
2006,07,09,17,02,22.70
2006,07,09,17,03,22.70
2006,07,09,17,04,22.80
2006,07,09,17,05,22.90
2006,07,09,17,06,22.90
2006,07,09,17,07,23.00
2006,07,09,17,08,23.10
2006,07,09,17,09,23.20
2006,07,09,17,10,23.20
2006,07,09,17,11,23.10
2006,07,09,17,12,23.10
2006,07,09,17,13,23.10
2006,07,09,17,14,23.10
2006,07,09,17,15,23.20
2006,07,09,17,16,23.20
2006,07,09,17,17,23.20
2006,07,09,17,18,23.20
2006,07,09,17,19,23.30